| time (UTC) | temp F | wind direction | speed MPH | gust MPH | rain 1hr in | rain 24hr in | rain mn in | humidity % | barometer mb |
| 20260901192703 | 55 | 223 | 1.0 | 3.0 | 0.00 | 0.17 | 0.17 | 93 | 1003.2 |
| 20260901191803 | 55 | 278 | 3.0 | 6.0 | 0.00 | 0.17 | 0.17 | 94 | 1003.2 |
| 20260901190903 | 56 | 276 | 1.0 | 7.0 | 0.00 | 0.17 | 0.17 | 95 | 1003.2 |
| 20260901190003 | 56 | 292 | 2.0 | 6.0 | 0.00 | 0.17 | 0.17 | 95 | 1003.2 |
| 20260901185424 | 56 | 313 | 2.0 | 4.0 | 0.00 | 0.17 | 0.17 | 94 | 1003.2 |
| 20260901184503 | 56 | 306 | 3.0 | 7.0 | 0.00 | 0.17 | 0.17 | 94 | 1003.1 |
| 20260901183603 | 56 | 304 | 3.0 | 5.0 | 0.00 | 0.17 | 0.17 | 94 | 1003.0 |
| 20260901182724 | 56 | 304 | 2.0 | 4.0 | 0.00 | 0.17 | 0.17 | 94 | 1003.1 |
| 20260901181803 | 55 | 304 | 2.0 | 3.0 | 0.00 | 0.17 | 0.17 | 93 | 1003.1 |
| 20260901180903 | 55 | 304 | 0.0 | 3.0 | 0.00 | 0.17 | 0.17 | 91 | 1003.2 |
| 20260901180024 | 56 | 0 | 0.0 | 0.0 | 0.00 | 0.17 | 0.17 | 91 | 1003.1 |
| 20260901175403 | 57 | 0 | 0.0 | 0.0 | 0.00 | 0.17 | 0.17 | 92 | 1003.0 |
| 20260901174503 | 58 | 304 | 0.0 | 3.0 | 0.00 | 0.17 | 0.17 | 92 | 1003.1 |
| 20260901173603 | 58 | 304 | 2.0 | 4.0 | 0.00 | 0.17 | 0.17 | 92 | 1002.9 |
| 20260901172703 | 59 | 304 | 2.0 | 3.0 | 0.00 | 0.17 | 0.17 | 92 | 1002.9 |
| 20260901171803 | 59 | 306 | 3.0 | 7.0 | 0.00 | 0.17 | 0.17 | 93 | 1002.8 |
| 20260901170903 | 59 | 297 | 3.0 | 6.0 | 0.00 | 0.17 | 0.17 | 93 | 1002.8 |
| 20260901170024 | 59 | 293 | 4.0 | 8.0 | 0.00 | 0.17 | 0.17 | 93 | 1002.8 |
| 20260901165403 | 59 | 293 | 4.0 | 9.0 | 0.00 | 0.17 | 0.17 | 92 | 1002.8 |
| 20260901164503 | 60 | 288 | 3.0 | 10.0 | 0.02 | 0.17 | 0.17 | 92 | 1002.7 |
| 20260901163603 | 60 | 262 | 1.0 | 6.0 | 0.17 | 0.17 | 0.17 | 93 | 1002.6 |
| 20260901162724 | 61 | 223 | 0.0 | 1.0 | 0.17 | 0.17 | 0.17 | 94 | 1002.7 |
| 20260901161803 | 60 | 0 | 0.0 | 0.0 | 0.17 | 0.17 | 0.17 | 93 | 1002.6 |
| 20260901160903 | 60 | 223 | 0.0 | 2.0 | 0.17 | 0.17 | 0.17 | 92 | 1002.6 |
| 20260901160003 | 60 | 222 | 1.0 | 3.0 | 0.17 | 0.17 | 0.17 | 90 | 1002.6 |
| 20260901155403 | 60 | 162 | 4.0 | 11.0 | 0.17 | 0.17 | 0.17 | 88 | 1002.6 |
| 20260901154503 | 62 | 182 | 6.0 | 23.0 | 0.15 | 0.15 | 0.15 | 84 | 1002.8 |
| 20260901153603 | 63 | 159 | 2.0 | 5.0 | 0.00 | 0.00 | 0.00 | 86 | 1002.6 |
| 20260901152703 | 64 | 152 | 2.0 | 5.0 | 0.00 | 0.00 | 0.00 | 85 | 1002.5 |
| 20260901151803 | 64 | 172 | 2.0 | 5.0 | 0.00 | 0.00 | 0.00 | 85 | 1002.5 |
| 20260901150904 | 64 | 178 | 2.0 | 4.0 | 0.00 | 0.00 | 0.00 | 85 | 1002.5 |
| 20260901150025 | 64 | 178 | 1.0 | 3.0 | 0.00 | 0.00 | 0.00 | 84 | 1002.5 |
| 20260901145404 | 64 | 178 | 2.0 | 3.0 | 0.00 | 0.00 | 0.00 | 84 | 1002.6 |
| 20260901144525 | 65 | 166 | 2.0 | 6.0 | 0.00 | 0.00 | 0.00 | 83 | 1002.6 |
| 20260901143604 | 64 | 155 | 1.0 | 5.0 | 0.00 | 0.00 | 0.00 | 83 | 1002.6 |
| 20260901142704 | 64 | 160 | 2.0 | 6.0 | 0.00 | 0.00 | 0.00 | 83 | 1002.7 |
| 20260901141804 | 65 | 160 | 3.0 | 7.0 | 0.00 | 0.00 | 0.00 | 83 | 1002.8 |
| 20260901140904 | 64 | 164 | 4.0 | 8.0 | 0.00 | 0.00 | 0.00 | 84 | 1002.8 |
| 20260901140025 | 64 | 178 | 3.0 | 8.0 | 0.00 | 0.00 | 0.00 | 83 | 1002.9 |
| 20260901135404 | 64 | 176 | 2.0 | 5.0 | 0.00 | 0.00 | 0.00 | 83 | 1002.9 |
| 20260901134504 | 64 | 197 | 2.0 | 5.0 | 0.00 | 0.00 | 0.00 | 85 | 1002.8 |
| 20260901133604 | 64 | 152 | 1.0 | 3.0 | 0.00 | 0.00 | 0.00 | 83 | 1002.8 |
| 20260901132704 | 64 | 159 | 2.0 | 6.0 | 0.00 | 0.00 | 0.00 | 85 | 1002.9 |
| 20260901131804 | 63 | 168 | 3.0 | 5.0 | 0.00 | 0.00 | 0.00 | 86 | 1003.0 |
| 20260901130904 | 63 | 172 | 3.0 | 6.0 | 0.00 | 0.00 | 0.00 | 86 | 1003.1 |
| 20260901130004 | 63 | 162 | 3.0 | 7.0 | 0.00 | 0.00 | 0.00 | 86 | 1003.0 |
| 20260901125404 | 63 | 165 | 3.0 | 8.0 | 0.00 | 0.00 | 0.00 | 86 | 1003.0 |
| 20260901124505 | 63 | 165 | 4.0 | 8.0 | 0.00 | 0.00 | 0.00 | 86 | 1003.1 |
| 20260901123604 | 63 | 164 | 2.0 | 6.0 | 0.00 | 0.00 | 0.00 | 87 | 1003.1 |
| 20260901122704 | 62 | 171 | 3.0 | 5.0 | 0.00 | 0.00 | 0.00 | 87 | 1003.2 |
| 20260901121804 | 62 | 164 | 3.0 | 6.0 | 0.00 | 0.00 | 0.00 | 86 | 1003.2 |
| 20260901120925 | 62 | 192 | 2.0 | 6.0 | 0.00 | 0.00 | 0.00 | 86 | 1003.2 |
| 20260901120004 | 62 | 196 | 1.0 | 3.0 | 0.00 | 0.00 | 0.00 | 86 | 1003.2 |
| 20260901115404 | 62 | 179 | 1.0 | 7.0 | 0.00 | 0.00 | 0.00 | 86 | 1003.2 |
| 20260901114504 | 62 | 190 | 2.0 | 5.0 | 0.00 | 0.00 | 0.00 | 86 | 1003.2 |
| 20260901113604 | 62 | 199 | 3.0 | 8.0 | 0.00 | 0.00 | 0.00 | 86 | 1003.2 |
| 20260901112725 | 62 | 179 | 2.0 | 6.0 | 0.00 | 0.00 | 0.00 | 86 | 1003.2 |
| 20260901111804 | 62 | 258 | 2.0 | 6.0 | 0.00 | 0.00 | 0.00 | 84 | 1003.2 |
| 20260901110904 | 63 | 212 | 2.0 | 6.0 | 0.00 | 0.00 | 0.00 | 84 | 1003.1 |
| 20260901110004 | 63 | 206 | 3.0 | 7.0 | 0.00 | 0.00 | 0.00 | 83 | 1003.0 |
| 20260901105404 | 63 | 239 | 2.0 | 6.0 | 0.00 | 0.00 | 0.00 | 83 | 1003.0 |
| 20260901104525 | 63 | 276 | 2.0 | 6.0 | 0.00 | 0.00 | 0.00 | 84 | 1003.0 |
| 20260901103625 | 63 | 213 | 2.0 | 7.0 | 0.00 | 0.00 | 0.00 | 84 | 1003.0 |
| 20260901102725 | 63 | 228 | 2.0 | 6.0 | 0.00 | 0.00 | 0.00 | 84 | 1003.0 |
| 20260901101804 | 63 | 193 | 3.0 | 7.0 | 0.00 | 0.01 | 0.00 | 84 | 1003.0 |
| 20260901100904 | 63 | 181 | 2.0 | 7.0 | 0.00 | 0.01 | 0.00 | 84 | 1002.9 |
| 20260901100004 | 63 | 194 | 2.0 | 5.0 | 0.00 | 0.01 | 0.00 | 84 | 1002.9 |
| 20260901095404 | 63 | 178 | 2.0 | 6.0 | 0.00 | 0.01 | 0.00 | 85 | 1002.9 |
| 20260901094504 | 63 | 203 | 4.0 | 11.0 | 0.00 | 0.01 | 0.00 | 84 | 1002.8 |
| 20260901093604 | 63 | 163 | 3.0 | 8.0 | 0.00 | 0.01 | 0.00 | 85 | 1002.8 |
| 20260901092704 | 62 | 174 | 3.0 | 6.0 | 0.00 | 0.01 | 0.00 | 86 | 1002.8 |
| 20260901091804 | 62 | 198 | 3.0 | 9.0 | 0.00 | 0.01 | 0.00 | 86 | 1002.8 |
| 20260901090904 | 62 | 186 | 3.0 | 7.0 | 0.00 | 0.01 | 0.00 | 88 | 1002.7 |
| 20260901090004 | 62 | 207 | 3.0 | 8.0 | 0.00 | 0.01 | 0.00 | 89 | 1002.7 |
| 20260901085404 | 61 | 229 | 2.0 | 7.0 | 0.00 | 0.01 | 0.00 | 89 | 1002.7 |
| 20260901084504 | 61 | 200 | 2.0 | 3.0 | 0.00 | 0.01 | 0.00 | 89 | 1002.7 |
| 20260901083625 | 61 | 227 | 1.0 | 4.0 | 0.00 | 0.01 | 0.00 | 89 | 1002.7 |
| 20260901082704 | 61 | 222 | 1.0 | 5.0 | 0.00 | 0.01 | 0.00 | 90 | 1002.7 |
| 20260901081804 | 61 | 191 | 1.0 | 4.0 | 0.00 | 0.01 | 0.00 | 90 | 1002.7 |
| 20260901080904 | 61 | 179 | 1.0 | 4.0 | 0.00 | 0.01 | 0.00 | 90 | 1002.7 |
| 20260901080004 | 61 | 180 | 2.0 | 4.0 | 0.00 | 0.01 | 0.00 | 90 | 1002.6 |
| 20260901075404 | 61 | 210 | 2.0 | 7.0 | 0.00 | 0.01 | 0.00 | 90 | 1002.5 |
| 20260901074504 | 61 | 209 | 2.0 | 7.0 | 0.00 | 0.01 | 0.00 | 90 | 1002.5 |
| 20260901073625 | 61 | 216 | 2.0 | 6.0 | 0.00 | 0.01 | 0.00 | 91 | 1002.6 |
| 20260901072704 | 61 | 207 | 3.0 | 7.0 | 0.00 | 0.01 | 0.00 | 91 | 1002.6 |
| 20260901071804 | 61 | 190 | 2.0 | 4.0 | 0.00 | 0.01 | 0.00 | 92 | 1002.5 |
| 20260901070904 | 61 | 200 | 2.0 | 5.0 | 0.00 | 0.01 | 0.00 | 92 | 1002.5 |
| 20260901070025 | 61 | 197 | 2.0 | 6.0 | 0.00 | 0.01 | 0.00 | 92 | 1002.4 |
| 20260901065404 | 61 | 200 | 2.0 | 6.0 | 0.00 | 0.01 | 0.00 | 92 | 1002.4 |
| 20260901064504 | 60 | 189 | 1.0 | 3.0 | 0.00 | 0.01 | 0.00 | 93 | 1002.4 |
| 20260901063604 | 60 | 183 | 1.0 | 5.0 | 0.00 | 0.01 | 0.00 | 94 | 1002.4 |
| 20260901062704 | 60 | 206 | 1.0 | 3.0 | 0.00 | 0.01 | 0.00 | 94 | 1002.4 |
| 20260901061804 | 60 | 238 | 1.0 | 3.0 | 0.00 | 0.01 | 0.00 | 94 | 1002.4 |
| 20260901060925 | 60 | 228 | 1.0 | 5.0 | 0.00 | 0.01 | 0.00 | 95 | 1002.3 |
| 20260901060004 | 60 | 200 | 1.0 | 5.0 | 0.00 | 0.01 | 0.00 | 95 | 1002.3 |
| 20260901055404 | 60 | 188 | 1.0 | 4.0 | 0.00 | 0.01 | 0.00 | 95 | 1002.3 |
| 20260901054504 | 59 | 192 | 1.0 | 3.0 | 0.00 | 0.01 | 0.00 | 96 | 1002.3 |
| 20260901053625 | 59 | 192 | 0.0 | 3.0 | 0.00 | 0.01 | 0.00 | 96 | 1002.1 |
| 20260901052704 | 59 | 208 | 1.0 | 4.0 | 0.00 | 0.01 | 0.00 | 96 | 1002.1 |
| 20260901051804 | 59 | 186 | 1.0 | 5.0 | 0.00 | 0.01 | 0.00 | 96 | 1002.1 |
| 20260901050904 | 59 | 275 | 1.0 | 4.0 | 0.00 | 0.01 | 0.00 | 96 | 1002.0 |
| 20260901050025 | 59 | 287 | 1.0 | 5.0 | 0.00 | 0.01 | 0.00 | 96 | 1002.0 |
| 20260901045404 | 59 | 284 | 1.0 | 4.0 | 0.00 | 0.01 | 0.00 | 96 | 1002.0 |
| 20260901044506 | 59 | 204 | 0.0 | 4.0 | 0.00 | 0.01 | 0.00 | 97 | 1001.9 |
| 20260901043604 | 59 | 191 | 0.0 | 2.0 | 0.00 | 0.01 | 0.00 | 97 | 1001.8 |
| 20260901042704 | 59 | 191 | 1.0 | 4.0 | 0.00 | 0.01 | 0.00 | 97 | 1002.0 |
| 20260901041804 | 59 | 189 | 1.0 | 4.0 | 0.00 | 0.01 | 0.00 | 97 | 1002.0 |
| 20260901040904 | 59 | 199 | 1.0 | 4.0 | 0.00 | 0.01 | 0.00 | 96 | 1001.9 |
| 20260901040004 | 59 | 242 | 1.0 | 3.0 | 0.00 | 0.01 | 0.00 | 97 | 1002.0 |
| 20260901035404 | 59 | 267 | 0.0 | 2.0 | 0.00 | 0.01 | 0.00 | 96 | 1002.0 |
| 20260901034504 | 59 | 279 | 1.0 | 4.0 | 0.00 | 0.01 | 0.00 | 97 | 1002.0 |
| 20260901033604 | 59 | 283 | 1.0 | 4.0 | 0.00 | 0.01 | 0.00 | 97 | 1002.0 |
| 20260901032704 | 59 | 293 | 1.0 | 4.0 | 0.00 | 0.01 | 0.00 | 97 | 1002.0 |
| 20260901031804 | 59 | 166 | 1.0 | 4.0 | 0.00 | 0.01 | 0.00 | 97 | 1002.1 |
| 20260901030904 | 59 | 155 | 1.0 | 5.0 | 0.00 | 0.01 | 0.00 | 97 | 1002.0 |
| 20260901030004 | 59 | 155 | 0.0 | 3.0 | 0.00 | 0.01 | 0.00 | 97 | 1002.0 |
| 20260901025404 | 59 | 155 | 0.0 | 2.0 | 0.00 | 0.01 | 0.00 | 97 | 1002.0 |
| 20260901024504 | 59 | 155 | 1.0 | 2.0 | 0.00 | 0.01 | 0.00 | 96 | 1002.0 |
| 20260901023604 | 59 | 155 | 1.0 | 3.0 | 0.00 | 0.01 | 0.00 | 97 | 1001.9 |
| 20260901022704 | 59 | 155 | 0.0 | 2.0 | 0.00 | 0.01 | 0.00 | 97 | 1001.8 |
| 20260901021804 | 59 | 155 | 1.0 | 6.0 | 0.00 | 0.01 | 0.00 | 97 | 1001.8 |
| 20260901020925 | 59 | 155 | 0.0 | 3.0 | 0.00 | 0.01 | 0.00 | 96 | 1001.8 |
| 20260901020004 | 59 | 155 | 0.0 | 3.0 | 0.00 | 0.01 | 0.00 | 96 | 1001.8 |
| 20260901015404 | 59 | 155 | 1.0 | 5.0 | 0.00 | 0.01 | 0.00 | 96 | 1001.8 |
| 20260901014504 | 59 | 155 | 2.0 | 5.0 | 0.00 | 0.01 | 0.00 | 96 | 1001.8 |
| 20260901013604 | 59 | 155 | 1.0 | 3.0 | 0.00 | 0.01 | 0.00 | 96 | 1001.8 |
| 20260901012704 | 59 | 155 | 2.0 | 3.0 | 0.00 | 0.01 | 0.00 | 96 | 1001.8 |
| 20260901011804 | 59 | 155 | 1.0 | 3.0 | 0.00 | 0.01 | 0.00 | 96 | 1001.8 |
| 20260901010904 | 59 | 155 | 1.0 | 2.0 | 0.00 | 0.01 | 0.00 | 96 | 1001.8 |
| 20260901010004 | 59 | 155 | 1.0 | 3.0 | 0.00 | 0.01 | 0.00 | 96 | 1001.9 |
| 20260901005404 | 59 | 155 | 1.0 | 2.0 | 0.00 | 0.01 | 0.00 | 96 | 1001.9 |
| 20260901004504 | 59 | 155 | 2.0 | 5.0 | 0.00 | 0.01 | 0.00 | 96 | 1001.9 |
| 20260901003604 | 59 | 155 | 2.0 | 6.0 | 0.00 | 0.02 | 0.00 | 96 | 1002.0 |
| 20260901002704 | 59 | 153 | 2.0 | 6.0 | 0.00 | 0.02 | 0.00 | 96 | 1002.0 |
| 20260901001804 | 59 | 152 | 2.0 | 5.0 | 0.00 | 0.02 | 0.00 | 96 | 1002.0 |
| 20260901000904 | 59 | 151 | 2.0 | 5.0 | 0.00 | 0.02 | 0.00 | 96 | 1002.1 |
| 20260901000004 | 59 | 150 | 1.0 | 4.0 | 0.00 | 0.02 | 0.00 | 96 | 1002.1 |
| 20260831235404 | 59 | 150 | 1.0 | 2.0 | 0.00 | 0.02 | 0.00 | 96 | 1002.1 |
| 20260831234504 | 59 | 150 | 1.0 | 3.0 | 0.00 | 0.02 | 0.00 | 96 | 1002.2 |
| 20260831233604 | 59 | 150 | 1.0 | 3.0 | 0.00 | 0.02 | 0.00 | 96 | 1002.2 |
| 20260831232705 | 59 | 150 | 1.0 | 3.0 | 0.00 | 0.02 | 0.00 | 96 | 1002.1 |
| 20260831231804 | 59 | 149 | 0.0 | 1.0 | 0.00 | 0.02 | 0.00 | 96 | 1002.2 |
| 20260831230904 | 59 | 149 | 0.0 | 1.0 | 0.00 | 0.02 | 0.00 | 96 | 1002.2 |
| 20260831230004 | 59 | 143 | 1.0 | 3.0 | 0.00 | 0.02 | 0.00 | 96 | 1002.2 |
| 20260831225404 | 59 | 133 | 1.0 | 3.0 | 0.00 | 0.02 | 0.00 | 96 | 1002.2 |
| 20260831224504 | 59 | 129 | 1.0 | 3.0 | 0.00 | 0.02 | 0.00 | 96 | 1002.2 |
| 20260831223604 | 59 | 129 | 1.0 | 2.0 | 0.00 | 0.02 | 0.00 | 96 | 1002.3 |
| 20260831222704 | 59 | 129 | 1.0 | 2.0 | 0.00 | 0.02 | 0.00 | 96 | 1002.2 |
| 20260831221804 | 59 | 144 | 1.0 | 3.0 | 0.00 | 0.02 | 0.00 | 96 | 1002.3 |
| 20260831220925 | 59 | 149 | 1.0 | 3.0 | 0.00 | 0.02 | 0.00 | 96 | 1002.3 |
| 20260831220004 | 58 | 149 | 2.0 | 3.0 | 0.00 | 0.02 | 0.00 | 96 | 1002.4 |
| 20260831215425 | 58 | 149 | 1.0 | 2.0 | 0.00 | 0.02 | 0.00 | 95 | 1002.4 |
| 20260831214504 | 58 | 149 | 1.0 | 2.0 | 0.00 | 0.02 | 0.00 | 95 | 1002.3 |
| 20260831213604 | 59 | 149 | 1.0 | 2.0 | 0.00 | 0.02 | 0.00 | 95 | 1002.3 |
| 20260831212704 | 59 | 149 | 0.0 | 2.0 | 0.00 | 0.02 | 0.00 | 95 | 1002.3 |
| 20260831211804 | 60 | 149 | 1.0 | 2.0 | 0.00 | 0.02 | 0.00 | 95 | 1002.3 |
| 20260831210904 | 60 | 149 | 1.0 | 2.0 | 0.00 | 0.02 | 0.00 | 95 | 1002.3 |
| 20260831210026 | 60 | 149 | 1.0 | 2.0 | 0.00 | 0.02 | 0.00 | 95 | 1002.4 |
| 20260831205404 | 60 | 149 | 1.0 | 3.0 | 0.00 | 0.02 | 0.02 | 95 | 1002.4 |
| 20260831204504 | 60 | 128 | 2.0 | 5.0 | 0.00 | 0.02 | 0.02 | 96 | 1002.4 |
| 20260831203604 | 60 | 135 | 2.0 | 4.0 | 0.00 | 0.02 | 0.02 | 96 | 1002.5 |
| 20260831202704 | 60 | 152 | 2.0 | 5.0 | 0.00 | 0.02 | 0.02 | 96 | 1002.4 |
| 20260831201804 | 61 | 139 | 2.0 | 4.0 | 0.00 | 0.02 | 0.02 | 96 | 1002.5 |
| 20260831200904 | 61 | 120 | 1.0 | 3.0 | 0.00 | 0.02 | 0.02 | 95 | 1002.4 |
| 20260831200004 | 61 | 123 | 2.0 | 3.0 | 0.00 | 0.02 | 0.02 | 95 | 1002.4 |
| 20260831195404 | 61 | 118 | 1.0 | 3.0 | 0.00 | 0.02 | 0.02 | 95 | 1002.4 |
| 20260831194504 | 61 | 121 | 1.0 | 3.0 | 0.00 | 0.02 | 0.02 | 95 | 1002.4 |
| 20260831193604 | 61 | 121 | 1.0 | 3.0 | 0.00 | 0.02 | 0.02 | 95 | 1002.5 |